This is the latest recevied weather packets stored in our database for station/object N9PBY-2. If no packets are shown the sender has not sent any weather packets the latest 10 day(s).
| Time | Temp. | Humidity | Pressure | Rain* | Wind** | Luminosity | Snow |
|---|---|---|---|---|---|---|---|
| 1778014207 | 14.44° C | 20% | 1007.6 hPa | 0 mm | - | - | - |
| 1778013606 | 15° C | 21% | 1007.7 hPa | 0 mm | - | - | - |
| 1778013007 | 14.44° C | 23% | 1007.8 hPa | 0 mm | - | - | - |
| 1778012406 | 15° C | 21% | 1007.8 hPa | 0 mm | - | - | - |
| 1778011807 | 14.44° C | 20% | 1007.6 hPa | 0 mm | - | - | - |
| 1778011207 | 15° C | 25% | 1007.8 hPa | 0 mm | - | - | - |
| 1778010606 | 14.44° C | 25% | 1007.7 hPa | 0 mm | - | - | - |
| 1778010006 | 13.89° C | 28% | 1007.8 hPa | 0 mm | - | - | - |
| 1778009406 | 13.89° C | 23% | 1007.6 hPa | 0 mm | - | - | - |
| 1778008807 | 13.89° C | 22% | 1007.7 hPa | 0 mm | - | - | - |
| 1778008206 | 13.89° C | 24% | 1007.6 hPa | 0 mm | - | - | - |
| 1778007607 | 13.89° C | 21% | 1007.5 hPa | 0 mm | - | - | - |
| 1778007006 | 14.44° C | 25% | 1007.4 hPa | 0 mm | - | - | - |
| 1778006407 | 14.44° C | 24% | 1007.4 hPa | 0 mm | - | - | - |
| 1778005806 | 15° C | 24% | 1007.4 hPa | 0 mm | - | - | - |
| 1778005207 | 14.44° C | 25% | 1007 hPa | 0 mm | - | - | - |
| 1778004606 | 14.44° C | 28% | 1007.1 hPa | 0 mm | - | - | - |
| 1778004007 | 13.89° C | 26% | 1007.3 hPa | 0 mm | - | - | - |
| 1778003406 | 14.44° C | 29% | 1007.3 hPa | 0 mm | - | - | - |
| 1778002807 | 13.89° C | 31% | 1007.2 hPa | 0 mm | - | - | - |
| 1778002207 | 13.89° C | 26% | 1007.3 hPa | 0 mm | - | - | - |
| 1778001606 | 13.89° C | 28% | 1007.1 hPa | 0 mm | - | - | - |
| 1778001006 | 13.33° C | 31% | 1007.2 hPa | 0 mm | - | - | - |
| 1778000407 | 13.33° C | 26% | 1007.1 hPa | 0 mm | - | - | - |
| 1777999807 | 13.33° C | 29% | 1007.1 hPa | 0 mm | - | - | - |
* Rain latest hour (hover to see other rain measurements)
** Current wind speed in m/s (hover to see current wind gust speed)